Location: Alexandria
(38.8050°N, 77.0470°W)
Time: 08:10:23
(UTC-04:00)

ISS - Pass Details

Date: 14 March 2018
Orbit: 403 x 407 km, 51.6° (Epoch: 26 June)

Event Time Altitude Azimuth Distance (km) Brightness Sun altitude
Exits shadow 05:03:32 10° 13° (NNE) 1,492 -0.6 -27.2°
Enters shadow 06:02:00 -70° 277° (W) 12,450 3.6 -16.2°
Maximum altitude 06:40:46 25° 28° (NNE) 872 -1.8 -8.7°
